This is the latest recevied weather packets stored in our database for station/object KD6VPH. If no packets are shown the sender has not sent any weather packets the latest 10 day(s).
| Time | Temp. | Humidity | Pressure | Rain* | Wind** | Luminosity | Snow |
|---|---|---|---|---|---|---|---|
| 1777604124 | 21.11° C | 48% | 1013.7 hPa | 0 mm | - | 25 W/m² | - |
| 1777603524 | 21.11° C | 45% | 1013.8 hPa | 0 mm | - | 32 W/m² | - |
| 1777602924 | 21.67° C | 43% | 1013.6 hPa | 0 mm | - | 47 W/m² | - |
| 1777602324 | 22.22° C | 43% | 1013.8 hPa | 0 mm | - | 54 W/m² | - |
| 1777601724 | 22.78° C | 43% | 1013.6 hPa | 0 mm | - | 63 W/m² | - |
| 1777601185 | 23.33° C | 46% | 1013.7 hPa | 0 mm | - | 69 W/m² | - |
| 1777601124 | 23.33° C | 46% | 1013.7 hPa | 0 mm | - | 69 W/m² | - |
| 1777600524 | 23.89° C | 43% | 1013.9 hPa | 0 mm | - | 62 W/m² | - |
| 1777599924 | 24.44° C | 45% | 1014 hPa | 0 mm | - | 63 W/m² | - |
| 1777599325 | 25.56° C | 38% | 1014.1 hPa | 0 mm | - | 123 W/m² | - |
| 1777598725 | 25.56° C | 35% | 1014.2 hPa | 0 mm | - | 388 W/m² | - |
| 1777598125 | 26.11° C | 37% | 1014.2 hPa | 0 mm | - | 415 W/m² | - |
| 1777597525 | 26.11° C | 40% | 1014.3 hPa | 0 mm | - | 520 W/m² | - |
| 1777596925 | 26.11° C | 41% | 1014.3 hPa | 0 mm | - | 571 W/m² | - |
| 1777596325 | 26.11° C | 38% | 1014.4 hPa | 0 mm | - | 628 W/m² | - |
| 1777595725 | 26.11° C | 38% | 1014.5 hPa | 0 mm | - | 661 W/m² | - |
| 1777595125 | 26.11° C | 35% | 1014.6 hPa | 0 mm | - | 712 W/m² | - |
| 1777594525 | 26.11° C | 35% | 1014.7 hPa | 0 mm | - | 758 W/m² | - |
| 1777593325 | 26.11° C | 35% | 1014.8 hPa | 0 mm | - | 844 W/m² | - |
| 1777592725 | 26.11° C | 37% | 1015 hPa | 0 mm | - | 900 W/m² | - |
| 1777592125 | 26.67° C | 38% | 1015.2 hPa | 0 mm | - | 926 W/m² | - |
| 1777591525 | 26.67° C | 37% | 1015.3 hPa | 0 mm | - | 986 W/m² | - |
| 1777590925 | 26.67° C | 35% | 1015.5 hPa | 0 mm | - | 1020 W/m² | - |
| 1777590325 | 26.11° C | 39% | 1015.5 hPa | 0 mm | - | 1111 W/m² | - |
| 1777589725 | 25.56° C | 43% | 1015.7 hPa | 0 mm | - | 1206 W/m² | - |
* Rain latest hour (hover to see other rain measurements)
** Current wind speed in m/s (hover to see current wind gust speed)